map of SBZ home
SBZ - Airport
Location
City:  Sibiu, Sibiu, Romania
ICAO:LRSB
IATA:SBZ

Details
Type:Airport (Aerodrome, Airfield)
Use:Public/Civil
Latitude:4547'09"N (45.785800)
Longitude:2405'08"E (24.085583)
Elevation:1520 ft (463 m)
Variation:5.54E (WMM2015 magnetic declination)
0.11 annual change
Runways:1
Longest:8629 × 148 ft (2630 × 45 m)

Time
Time Zone:UTC+2 (DST+3)
Local Time:

Weather
METAR:LRSB 220830Z 10004KT CAVOK 21/10 Q1018
TAF:LRSB 220500Z 2206/2306 VRB04KT CAVOK
BECMG 2210/2212 32012KT
TEMPO 2212/2218 SCT045CB
BECMG 2218/2220 VRB04KT PROB40
TEMPO 2220/2301 5000 SHRA SCT040CB BKN045

Related Locations
Nearby:
Farthest:CHT: 11424 mi / 18385 km
Waitangi [Tuuta], CIT, NZ

Find:

   beyond  
but within

Other Information
Maps:
NOTAMs:
Links:
Sources:

  
  • flag of Romania
  

Sectional Chart

Flight Planning
at skyvector.com

Satellite Image

Google Maps Satellite view

 

Copyright © 2004-2018 Karl L. Swartz. All rights reserved.
The Great Circle Mapper name and logo are trademarks of the Great Circle Mapper.
All other trademarks mentioned herein belong to their respective owners.
Please see credits for attibutions and further copyright information.

  Follow gcmap on Facebook Follow gcmap on Twitter Follow gcmap on Google+ GCmap on LinkedIn

hCard Microformat

Geo Microformat